TimeEST,TemperatureF,Dew PointF,Humidity,Sea Level PressureIn,VisibilityMPH,Wind Direction,Wind SpeedMPH,Gust SpeedMPH,PrecipitationIn,Events,Conditions,WindDirDegrees,DateUTC
12:11 AM,62.6,60.8,94,29.85,10.0,NNE,5.8,-,0.00,Rain-Thunderstorm,Thunderstorms and Rain,20,2013-02-25 05:11:00
12:25 AM,62.6,60.8,94,29.87,7.0,SE,5.8,-,0.03,Rain-Thunderstorm,Rain,130,2013-02-25 05:25:00
12:29 AM,62.6,60.8,94,29.88,1.5,East,5.8,-,0.27,Rain-Thunderstorm,Rain,100,2013-02-25 05:29:00
12:42 AM,62.6,60.8,94,29.88,3.0,NNE,6.9,-,0.38,Rain-Thunderstorm,Rain,20,2013-02-25 05:42:00
12:53 AM,62.1,60.1,93,29.90,5.0,North,8.1,-,0.38,Rain,Rain,350,2013-02-25 05:53:00
1:12 AM,60.8,59.0,94,29.85,10.0,NNE,9.2,-,0.00,Rain,Rain,20,2013-02-25 06:12:00
1:19 AM,60.8,59.0,94,29.85,10.0,NNE,10.4,-,0.00,Rain,Rain,30,2013-02-25 06:19:00
1:53 AM,61.0,57.9,90,29.88,10.0,NE,8.1,-,0.00,Rain,Rain,50,2013-02-25 06:53:00
2:14 AM,60.8,57.2,88,29.86,5.0,North,10.4,-,0.05,Rain-Thunderstorm,Rain,350,2013-02-25 07:14:00
2:31 AM,60.8,57.2,88,29.83,4.0,NNE,10.4,-,0.12,Rain-Thunderstorm,Rain,20,2013-02-25 07:31:00
2:53 AM,59.0,57.0,93,29.87,8.0,NE,9.2,-,0.15,Rain-Thunderstorm,Rain,40,2013-02-25 07:53:00
3:18 AM,59.0,57.2,94,29.80,5.0,ENE,8.1,-,0.04,Rain-Thunderstorm,Thunderstorms and Rain,60,2013-02-25 08:18:00
3:43 AM,59.0,57.2,94,29.82,4.0,NW,13.8,-,0.08,Rain,Rain,320,2013-02-25 08:43:00
3:53 AM,57.9,55.9,93,29.88,7.0,NW,11.5,-,0.08,Rain,Rain,320,2013-02-25 08:53:00
4:00 AM,57.2,55.4,94,29.81,2.5,NNW,11.5,21.9,0.13,Rain-Thunderstorm,Rain,330,2013-02-25 09:00:00
4:10 AM,57.2,55.4,94,29.82,1.5,North,12.7,18.4,0.31,Rain-Thunderstorm,Rain,360,2013-02-25 09:10:00
4:15 AM,57.2,55.4,94,29.82,2.0,NNW,16.1,21.9,0.35,Rain-Thunderstorm,Rain,340,2013-02-25 09:15:00
4:23 AM,57.2,55.4,94,29.85,3.0,NW,11.5,-,0.41,Rain-Thunderstorm,Thunderstorms and Rain,310,2013-02-25 09:23:00
4:40 AM,57.2,55.4,94,29.80,8.0,North,12.7,-,0.44,Rain-Thunderstorm,Thunderstorms and Rain,10,2013-02-25 09:40:00
4:53 AM,57.0,55.0,93,29.84,10.0,NNE,12.7,-,0.44,Rain,Rain,30,2013-02-25 09:53:00
5:53 AM,57.9,55.0,90,29.82,9.0,NE,10.4,-,0.01,Rain,Rain,50,2013-02-25 10:53:00
6:11 AM,57.2,55.4,94,29.79,10.0,ENE,8.1,-,0.01,Rain-Thunderstorm,Rain,60,2013-02-25 11:11:00
6:34 AM,57.2,55.4,94,29.81,2.0,ENE,10.4,-,0.19,Rain,Rain,70,2013-02-25 11:34:00
6:45 AM,57.2,55.4,94,29.81,3.0,East,13.8,-,0.25,Rain,Rain,90,2013-02-25 11:45:00
6:53 AM,57.9,55.9,93,29.83,10.0,ENE,11.5,19.6,0.25,Rain,Light Rain,60,2013-02-25 11:53:00
7:51 AM,60.8,57.2,88,29.78,10.0,ENE,12.7,19.6,0.00,,Overcast,60,2013-02-25 12:51:00
7:53 AM,60.1,57.9,93,29.82,10.0,ENE,13.8,19.6,0.00,,Overcast,60,2013-02-25 12:53:00
8:53 AM,62.1,59.0,90,29.79,9.0,ENE,13.8,23.0,0.00,Rain,Light Rain,60,2013-02-25 13:53:00
9:18 AM,62.6,59.0,88,29.84,3.0,WNW,16.1,-,N/A,Rain,Heavy Rain,290,2013-02-25 14:18:00
9:21 AM,62.6,59.0,88,29.83,2.5,NW,17.3,-,N/A,Rain,Heavy Rain,310,2013-02-25 14:21:00
9:28 AM,60.8,59.0,94,29.84,1.2,NNW,17.3,24.2,N/A,Rain,Heavy Rain,340,2013-02-25 14:28:00
9:35 AM,60.8,57.2,88,29.83,1.0,WNW,8.1,24.2,N/A,Rain,Heavy Rain,300,2013-02-25 14:35:00
9:53 AM,60.1,57.9,93,29.88,1.8,North,11.5,-,N/A,Rain,Heavy Rain,350,2013-02-25 14:53:00
9:56 AM,60.8,57.2,88,29.84,2.0,North,12.7,-,0.01,Rain,Heavy Rain,360,2013-02-25 14:56:00
10:07 AM,60.8,57.2,88,29.83,3.0,North,16.1,-,0.04,Rain,Heavy Rain,360,2013-02-25 15:07:00
10:16 AM,60.8,57.2,88,29.82,2.0,North,16.1,-,0.08,Rain,Heavy Rain,360,2013-02-25 15:16:00
10:28 AM,60.8,57.2,88,29.82,3.0,North,15.0,23.0,0.09,Rain,Heavy Rain,10,2013-02-25 15:28:00
10:53 AM,61.0,57.9,90,29.86,3.0,NNE,18.4,27.6,0.16,Rain,Heavy Rain,20,2013-02-25 15:53:00
11:42 AM,60.8,57.2,88,29.82,4.0,NNE,16.1,23.0,0.12,Rain,Rain,30,2013-02-25 16:42:00
11:53 AM,61.0,57.9,90,29.86,5.0,NNE,17.3,24.2,0.12,Rain,Rain,20,2013-02-25 16:53:00
12:53 PM,61.0,57.9,90,29.84,2.5,NE,12.7,-,0.11,Rain,Heavy Rain,40,2013-02-25 17:53:00
1:04 PM,60.8,57.2,88,29.81,3.0,Variable,5.8,26.5,0.03,Rain,Light Rain,0,2013-02-25 18:04:00
1:53 PM,62.1,57.9,86,29.79,10.0,ENE,16.1,26.5,0.03,,Mostly Cloudy,70,2013-02-25 18:53:00
2:53 PM,63.0,57.9,84,29.79,10.0,ENE,11.5,-,N/A,,Mostly Cloudy,70,2013-02-25 19:53:00
3:53 PM,63.0,59.0,87,29.76,10.0,ENE,9.2,-,0.00,,Scattered Clouds,70,2013-02-25 20:53:00
4:03 PM,62.6,59.0,88,29.74,10.0,East,12.7,18.4,N/A,,Mostly Cloudy,90,2013-02-25 21:03:00
4:53 PM,63.0,59.0,87,29.75,10.0,East,10.4,-,0.00,Rain,Light Rain,90,2013-02-25 21:53:00
5:53 PM,62.1,59.0,90,29.76,6.0,East,9.2,-,N/A,Rain,Rain,90,2013-02-25 22:53:00
6:00 PM,62.6,59.0,88,29.72,5.0,East,9.2,-,0.01,Rain,Rain,80,2013-02-25 23:00:00
6:38 PM,62.6,59.0,88,29.73,8.0,East,10.4,-,0.01,Rain,Rain,100,2013-02-25 23:38:00
6:53 PM,62.1,59.0,90,29.77,4.0,East,11.5,-,0.06,Rain,Heavy Rain,100,2013-02-25 23:53:00
7:53 PM,62.1,60.1,93,29.72,10.0,ENE,9.2,-,0.07,,Overcast,60,2013-02-26 00:53:00
8:53 PM,62.1,60.1,93,29.73,10.0,East,9.2,-,0.00,Rain,Light Rain,100,2013-02-26 01:53:00
9:00 PM,62.6,60.8,94,29.66,8.0,ENE,9.2,-,0.01,Rain,Rain,60,2013-02-26 02:00:00
9:29 PM,62.6,60.8,94,29.68,10.0,East,10.4,-,0.01,,Overcast,90,2013-02-26 02:29:00
9:53 PM,62.6,60.8,94,29.68,9.0,East,9.2,-,N/A,Rain,Light Rain,90,2013-02-26 02:53:00
10:10 PM,62.6,60.8,94,29.68,2.5,East,9.2,-,0.15,Rain,Heavy Rain,90,2013-02-26 03:10:00
10:13 PM,62.6,60.8,94,29.69,2.0,East,9.2,-,0.22,Rain-Thunderstorm,Heavy Thunderstorms and Rain,100,2013-02-26 03:13:00
10:31 PM,62.6,60.8,94,29.68,3.0,East,8.1,-,0.39,Rain-Thunderstorm,Heavy Thunderstorms and Rain,90,2013-02-26 03:31:00
10:36 PM,62.6,60.8,94,29.69,2.5,East,9.2,-,0.41,Rain-Thunderstorm,Heavy Thunderstorms and Rain,100,2013-02-26 03:36:00
10:48 PM,62.6,60.8,94,29.68,2.5,East,8.1,-,0.53,Rain-Thunderstorm,Heavy Rain,90,2013-02-26 03:48:00
10:53 PM,63.0,61.0,93,29.71,1.8,ENE,8.1,-,0.61,Rain-Thunderstorm,Heavy Rain,70,2013-02-26 03:53:00
11:00 PM,62.6,60.8,94,29.67,3.0,East,9.2,-,0.04,Rain-Thunderstorm,Heavy Rain,90,2013-02-26 04:00:00
11:23 PM,62.6,60.8,94,29.68,9.0,East,9.2,-,0.06,Rain,Light Rain,100,2013-02-26 04:23:00
11:53 PM,64.0,62.1,93,29.69,9.0,East,12.7,-,0.06,Rain,Rain,100,2013-02-26 04:53:00